Time,TemperatureF,DewpointF,PressureIn,WindDirection,WindDirectionDegrees,WindSpeedMPH,WindSpeedGustMPH,Humidity,HourlyPrecipIn,Conditions,Clouds,dailyrainin,SoftwareType,DateUTC
2013-03-20 00:10:00,9.2,-4.0,30.25,NW,323,7.0,-999.0,56,-99.99,,,0.00,weatherlink.com 1.10,2013-03-20 05:10:00,
2013-03-20 00:25:00,9.0,-4.0,30.25,NNW,340,4.0,-999.0,57,-99.99,,,0.00,weatherlink.com 1.10,2013-03-20 05:25:00,
2013-03-20 00:40:00,8.8,-4.0,30.25,NNW,331,3.0,-999.0,57,-99.99,,,0.00,weatherlink.com 1.10,2013-03-20 05:40:00,
2013-03-20 00:55:00,8.8,-4.0,30.25,NW,322,0.0,-999.0,56,-99.99,,,0.00,weatherlink.com 1.10,2013-03-20 05:55:00,
2013-03-20 01:10:00,8.4,-4.0,30.25,West,281,8.0,-999.0,56,-99.99,,,0.00,weatherlink.com 1.10,2013-03-20 06:10:00,
2013-03-20 01:25:00,8.3,-5.0,30.25,North,0,6.0,-999.0,56,-99.99,,,0.00,weatherlink.com 1.10,2013-03-20 06:25:00,
2013-03-20 01:40:00,8.1,-5.0,30.25,WNW,288,3.0,-999.0,56,-99.99,,,0.00,weatherlink.com 1.10,2013-03-20 06:40:00,
2013-03-20 01:55:00,7.9,-5.0,30.25,NW,324,8.0,-999.0,56,-99.99,,,0.00,weatherlink.com 1.10,2013-03-20 06:55:00,
2013-03-20 02:10:00,7.7,-5.0,30.25,NW,323,4.0,-999.0,57,-99.99,,,0.00,weatherlink.com 1.10,2013-03-20 07:10:00,
2013-03-20 02:25:00,7.7,-4.0,30.25,NNW,345,5.0,-999.0,58,-99.99,,,0.00,weatherlink.com 1.10,2013-03-20 07:25:00,
2013-03-20 02:40:00,7.6,-4.0,30.25,NW,320,6.0,-999.0,59,-99.99,,,0.00,weatherlink.com 1.10,2013-03-20 07:40:00,
2013-03-20 02:55:00,7.7,-4.0,30.25,WNW,300,0.0,-999.0,60,-99.99,,,0.00,weatherlink.com 1.10,2013-03-20 07:55:00,
2013-03-20 03:10:00,7.6,-4.0,30.25,NNW,327,3.0,-999.0,60,-99.99,,,0.00,weatherlink.com 1.10,2013-03-20 08:10:00,
2013-03-20 03:25:00,7.2,-4.0,30.25,North,358,0.0,-999.0,61,-99.99,,,0.00,weatherlink.com 1.10,2013-03-20 08:25:00,
2013-03-20 03:39:00,7.0,-4.0,30.25,West,262,1.0,-999.0,61,-99.99,,,0.00,weatherlink.com 1.10,2013-03-20 08:39:00,
2013-03-20 03:54:00,6.9,-4.0,30.24,WNW,294,0.0,-999.0,61,-99.99,,,0.00,weatherlink.com 1.10,2013-03-20 08:54:00,
2013-03-20 04:09:00,6.9,-4.0,30.24,West,281,3.0,-999.0,60,-99.99,,,0.00,weatherlink.com 1.10,2013-03-20 09:09:00,
2013-03-20 04:24:00,6.7,-5.0,30.24,WNW,284,3.0,-999.0,60,-99.99,,,0.00,weatherlink.com 1.10,2013-03-20 09:24:00,
2013-03-20 04:39:00,6.5,-5.0,30.24,WNW,297,0.0,-999.0,60,-99.99,,,0.00,weatherlink.com 1.10,2013-03-20 09:39:00,
2013-03-20 04:54:00,6.3,-5.0,30.23,NW,311,5.0,-999.0,61,-99.99,,,0.00,weatherlink.com 1.10,2013-03-20 09:54:00,
2013-03-20 05:09:00,6.1,-5.0,30.24,NW,316,6.0,-999.0,61,-99.99,,,0.00,weatherlink.com 1.10,2013-03-20 10:09:00,
2013-03-20 05:24:00,6.0,-5.0,30.25,WSW,257,2.0,-999.0,61,-99.99,,,0.00,weatherlink.com 1.10,2013-03-20 10:24:00,
2013-03-20 05:39:00,5.8,-5.0,30.25,WNW,292,3.0,-999.0,62,-99.99,,,0.00,weatherlink.com 1.10,2013-03-20 10:39:00,
2013-03-20 05:54:00,5.8,-5.0,30.25,NW,318,5.0,-999.0,61,-99.99,,,0.00,weatherlink.com 1.10,2013-03-20 10:54:00,
2013-03-20 06:09:00,5.8,-5.0,30.25,NW,311,3.0,-999.0,61,-99.99,,,0.00,weatherlink.com 1.10,2013-03-20 11:09:00,
2013-03-20 06:24:00,5.8,-5.0,30.27,NNW,334,8.0,-999.0,61,-99.99,,,0.00,weatherlink.com 1.10,2013-03-20 11:24:00,
2013-03-20 06:39:00,5.6,-5.0,30.27,West,275,4.0,-999.0,61,-99.99,,,0.00,weatherlink.com 1.10,2013-03-20 11:39:00,
2013-03-20 06:54:00,5.4,-6.0,30.27,WNW,288,2.0,-999.0,60,-99.99,,,0.00,weatherlink.com 1.10,2013-03-20 11:54:00,
2013-03-20 07:09:00,5.4,-6.0,30.27,NW,318,9.0,-999.0,60,-99.99,,,0.00,weatherlink.com 1.10,2013-03-20 12:09:00,
2013-03-20 07:24:00,5.4,-6.0,30.28,WNW,285,1.0,-999.0,60,-99.99,,,0.00,weatherlink.com 1.10,2013-03-20 12:24:00,
2013-03-20 07:39:00,5.8,-5.0,30.27,NW,314,0.0,-999.0,60,-99.99,,,0.00,weatherlink.com 1.10,2013-03-20 12:39:00,
2013-03-20 07:54:00,6.1,-6.0,30.27,WNW,291,2.0,-999.0,59,-99.99,,,0.00,weatherlink.com 1.10,2013-03-20 12:54:00,
2013-03-20 08:09:00,6.9,-6.0,30.27,WNW,303,9.0,-999.0,57,-99.99,,,0.00,weatherlink.com 1.10,2013-03-20 13:09:00,
2013-03-20 08:24:00,7.4,-5.0,30.27,WSW,244,11.0,-999.0,56,-99.99,,,0.00,weatherlink.com 1.10,2013-03-20 13:24:00,
2013-03-20 08:39:00,8.1,-6.0,30.27,North,358,5.0,-999.0,54,-99.99,,,0.00,weatherlink.com 1.10,2013-03-20 13:39:00,
2013-03-20 08:54:00,8.6,-5.0,30.27,NNW,340,7.0,-999.0,53,-99.99,,,0.00,weatherlink.com 1.10,2013-03-20 13:54:00,
2013-03-20 09:09:00,9.3,-5.0,30.27,NNW,333,1.0,-999.0,52,-99.99,,,0.00,weatherlink.com 1.10,2013-03-20 14:09:00,
2013-03-20 09:24:00,10.2,-5.0,30.27,NW,323,6.0,-999.0,51,-99.99,,,0.00,weatherlink.com 1.10,2013-03-20 14:24:00,
2013-03-20 09:39:00,11.1,-4.0,30.26,NNE,33,3.0,-999.0,50,-99.99,,,0.00,weatherlink.com 1.10,2013-03-20 14:39:00,
2013-03-20 09:54:00,11.4,-5.0,30.25,North,358,7.0,-999.0,47,-99.99,,,0.00,weatherlink.com 1.10,2013-03-20 14:54:00,
2013-03-20 10:09:00,11.6,-5.0,30.25,NW,314,5.0,-999.0,47,-99.99,,,0.00,weatherlink.com 1.10,2013-03-20 15:09:00,
2013-03-20 10:24:00,12.3,-4.0,30.25,NNE,22,2.0,-999.0,48,-99.99,,,0.00,weatherlink.com 1.10,2013-03-20 15:24:00,
2013-03-20 10:39:00,12.3,-5.0,30.25,NW,326,6.0,-999.0,47,-99.99,,,0.00,weatherlink.com 1.10,2013-03-20 15:39:00,
2013-03-20 10:54:00,12.6,-4.0,30.25,NE,44,5.0,-999.0,48,-99.99,,,0.00,weatherlink.com 1.10,2013-03-20 15:54:00,
2013-03-20 11:09:00,12.9,-4.0,30.25,NNW,334,4.0,-999.0,47,-99.99,,,0.00,weatherlink.com 1.10,2013-03-20 16:09:00,
2013-03-20 11:24:00,13.8,-4.0,30.25,NW,309,2.0,-999.0,46,-99.99,,,0.00,weatherlink.com 1.10,2013-03-20 16:24:00,
2013-03-20 11:39:00,14.1,-3.0,30.25,NW,324,1.0,-999.0,47,-99.99,,,0.00,weatherlink.com 1.10,2013-03-20 16:39:00,
2013-03-20 11:54:00,14.4,-3.0,30.24,North,351,8.0,-999.0,46,-99.99,,,0.00,weatherlink.com 1.10,2013-03-20 16:54:00,
2013-03-20 12:09:00,14.8,-3.0,30.23,West,271,11.0,-999.0,46,-99.99,,,0.00,weatherlink.com 1.10,2013-03-20 17:09:00,
2013-03-20 12:24:00,15.1,-2.0,30.23,West,260,2.0,-999.0,46,-99.99,,,0.00,weatherlink.com 1.10,2013-03-20 17:24:00,
2013-03-20 12:39:00,15.6,-2.0,30.23,NW,317,10.0,-999.0,46,-99.99,,,0.00,weatherlink.com 1.10,2013-03-20 17:39:00,
2013-03-20 12:54:00,15.7,-1.0,30.23,NW,318,7.0,-999.0,47,-99.99,,,0.00,weatherlink.com 1.10,2013-03-20 17:54:00,
2013-03-20 13:09:00,16.4,-2.0,30.22,NW,316,5.0,-999.0,45,-99.99,,,0.00,weatherlink.com 1.10,2013-03-20 18:09:00,
2013-03-20 13:24:00,16.2,-2.0,30.22,WNW,282,4.0,-999.0,45,-99.99,,,0.00,weatherlink.com 1.10,2013-03-20 18:24:00,
2013-03-20 13:39:00,17.2,0.0,30.20,NNW,333,5.0,-999.0,46,-99.99,,,0.00,weatherlink.com 1.10,2013-03-20 18:39:00,
2013-03-20 13:54:00,17.3,0.0,30.20,NNW,337,5.0,-999.0,46,-99.99,,,0.00,weatherlink.com 1.10,2013-03-20 18:54:00,
2013-03-20 14:09:00,17.3,0.0,30.20,WSW,243,6.0,-999.0,46,-99.99,,,0.00,weatherlink.com 1.10,2013-03-20 19:09:00,
2013-03-20 14:24:00,17.7,1.0,30.20,NW,312,4.0,-999.0,47,-99.99,,,0.00,weatherlink.com 1.10,2013-03-20 19:24:00,
2013-03-20 14:39:00,17.5,0.0,30.19,NW,326,7.0,-999.0,47,-99.99,,,0.00,weatherlink.com 1.10,2013-03-20 19:39:00,
2013-03-20 14:54:00,17.8,1.0,30.18,NNW,330,8.0,-999.0,47,-99.99,,,0.00,weatherlink.com 1.10,2013-03-20 19:54:00,
2013-03-20 15:09:00,18.8,2.0,30.18,WNW,302,6.0,-999.0,47,-99.99,,,0.00,weatherlink.com 1.10,2013-03-20 20:09:00,
2013-03-20 15:24:00,18.4,1.0,30.18,NW,317,8.0,-999.0,47,-99.99,,,0.00,weatherlink.com 1.10,2013-03-20 20:24:00,
2013-03-20 15:39:00,19.1,2.0,30.17,NW,311,4.0,-999.0,47,-99.99,,,0.00,weatherlink.com 1.10,2013-03-20 20:39:00,
2013-03-20 15:54:00,19.4,2.0,30.17,NNE,21,5.0,-999.0,47,-99.99,,,0.00,weatherlink.com 1.10,2013-03-20 20:54:00,
2013-03-20 16:09:00,18.9,2.0,30.17,WNW,288,3.0,-999.0,47,-99.99,,,0.00,weatherlink.com 1.10,2013-03-20 21:09:00,
2013-03-20 16:24:00,18.9,2.0,30.17,North,352,10.0,-999.0,48,-99.99,,,0.00,weatherlink.com 1.10,2013-03-20 21:24:00,
2013-03-20 16:39:00,18.9,2.0,30.17,NW,311,2.0,-999.0,47,-99.99,,,0.00,weatherlink.com 1.10,2013-03-20 21:39:00,
2013-03-20 16:54:00,18.9,2.0,30.17,NW,326,7.0,-999.0,47,-99.99,,,0.00,weatherlink.com 1.10,2013-03-20 21:54:00,
2013-03-20 17:09:00,19.2,2.0,30.17,NNW,327,2.0,-999.0,47,-99.99,,,0.00,weatherlink.com 1.10,2013-03-20 22:09:00,
2013-03-20 17:24:00,19.5,2.0,30.17,NW,317,3.0,-999.0,47,-99.99,,,0.00,weatherlink.com 1.10,2013-03-20 22:24:00,
2013-03-20 17:39:00,19.2,2.0,30.17,WNW,296,7.0,-999.0,47,-99.99,,,0.00,weatherlink.com 1.10,2013-03-20 22:39:00,
2013-03-20 17:54:00,18.8,2.0,30.17,North,352,6.0,-999.0,48,-99.99,,,0.00,weatherlink.com 1.10,2013-03-20 22:54:00,
2013-03-20 18:09:00,18.6,2.0,30.17,NNW,331,8.0,-999.0,49,-99.99,,,0.00,weatherlink.com 1.10,2013-03-20 23:09:00,
2013-03-20 18:24:00,18.3,2.0,30.17,NNW,340,2.0,-999.0,49,-99.99,,,0.00,weatherlink.com 1.10,2013-03-20 23:24:00,
2013-03-20 18:40:00,17.8,2.0,30.17,NW,314,4.0,-999.0,50,-99.99,,,0.00,weatherlink.com 1.10,2013-03-20 23:40:00,
2013-03-20 18:54:00,16.9,2.0,30.17,WNW,303,5.0,-999.0,52,-99.99,,,0.00,weatherlink.com 1.10,2013-03-20 23:54:00,
2013-03-20 19:09:00,16.5,2.0,30.17,WNW,293,3.0,-999.0,53,-99.99,,,0.00,weatherlink.com 1.10,2013-03-21 00:09:00,
2013-03-20 19:25:00,16.1,2.0,30.17,North,353,4.0,-999.0,53,-99.99,,,0.00,weatherlink.com 1.10,2013-03-21 00:25:00,
2013-03-20 19:40:00,15.6,2.0,30.17,NW,311,4.0,-999.0,54,-99.99,,,0.00,weatherlink.com 1.10,2013-03-21 00:40:00,
2013-03-20 19:55:00,15.1,2.0,30.17,NW,312,4.0,-999.0,55,-99.99,,,0.00,weatherlink.com 1.10,2013-03-21 00:55:00,
2013-03-20 20:10:00,14.8,2.0,30.17,NW,311,0.0,-999.0,56,-99.99,,,0.00,weatherlink.com 1.10,2013-03-21 01:10:00,
2013-03-20 20:25:00,14.3,2.0,30.17,WNW,290,1.0,-999.0,58,-99.99,,,0.00,weatherlink.com 1.10,2013-03-21 01:25:00,
2013-03-20 20:40:00,13.6,2.0,30.18,West,274,1.0,-999.0,59,-99.99,,,0.00,weatherlink.com 1.10,2013-03-21 01:40:00,
2013-03-20 20:55:00,13.5,2.0,30.18,NW,326,0.0,-999.0,59,-99.99,,,0.00,weatherlink.com 1.10,2013-03-21 01:55:00,
2013-03-20 21:10:00,13.1,1.0,30.18,NW,309,0.0,-999.0,59,-99.99,,,0.00,weatherlink.com 1.10,2013-03-21 02:10:00,
2013-03-20 21:25:00,12.8,1.0,30.18,WNW,283,1.0,-999.0,59,-99.99,,,0.00,weatherlink.com 1.10,2013-03-21 02:25:00,
2013-03-20 21:40:00,12.4,1.0,30.18,West,272,0.0,-999.0,60,-99.99,,,0.00,weatherlink.com 1.10,2013-03-21 02:40:00,
2013-03-20 21:55:00,11.9,1.0,30.17,West,260,0.0,-999.0,61,-99.99,,,0.00,weatherlink.com 1.10,2013-03-21 02:55:00,
2013-03-20 22:10:00,11.6,0.0,30.17,West,268,1.0,-999.0,61,-99.99,,,0.00,weatherlink.com 1.10,2013-03-21 03:10:00,
2013-03-20 22:25:00,11.4,0.0,30.17,West,264,5.0,-999.0,61,-99.99,,,0.00,weatherlink.com 1.10,2013-03-21 03:25:00,
2013-03-20 22:40:00,11.2,0.0,30.18,West,274,0.0,-999.0,61,-99.99,,,0.00,weatherlink.com 1.10,2013-03-21 03:40:00,
2013-03-20 23:10:00,10.9,0.0,30.18,WNW,288,2.0,-999.0,61,-99.99,,,0.00,weatherlink.com 1.10,2013-03-21 04:10:00,
2013-03-20 23:25:00,10.7,0.0,30.18,WNW,290,4.0,-999.0,62,-99.99,,,0.00,weatherlink.com 1.10,2013-03-21 04:25:00,
2013-03-20 23:40:00,10.5,0.0,30.17,WNW,299,2.0,-999.0,62,-99.99,,,0.00,weatherlink.com 1.10,2013-03-21 04:40:00,
2013-03-20 23:55:00,10.2,-1.0,30.17,WNW,292,0.0,-999.0,62,-99.99,,,0.00,weatherlink.com 1.10,2013-03-21 04:55:00,